QPF
0.02 0.02 0.05 0.08 0.11 0.13 0.13 0.07 0.03 0.03 0.03 0.01 0.01 0.01 0.04 0.07 0.10 0.13 0.15 0.12 0.09 0.07 0.04 0.04 0.08 0.10 0.09 0.08 0.07 0.08 0.08 0.08 0.08 0.07 0.08 0.07 0.07 0.04 0.04 0.05 0.04 0.03 0.03 0.03 0.01 0.01 0.01 0.01 0.01
0.02 0.02 0.05 0.08 0.12 0.13 0.13 0.08 0.04 0.03 0.02 0.02 0.02 0.01 0.03 0.06 0.05 0.10 0.15 0.12 0.08 0.07 0.05 0.05 0.08 0.08 0.07 0.08 0.09 0.07 0.06 0.07 0.07 0.05 0.04 0.04 0.04 0.04 0.03 0.04 0.03 0.02 0.02 0.02 0.01 0.01 0.01 0.01 0.01
0.01 0.02 0.06 0.08 0.09 0.12 0.12 0.08 0.04 0.02 0.02 0.02 0.03 0.02 0.03 0.07 0.07 0.09 0.12 0.08 0.07 0.07 0.06 0.07 0.08 0.06 0.06 0.07 0.08 0.07 0.06 0.06 0.04 0.02 0.02 0.03 0.03 0.04 0.04 0.03 0.02 0.01 0.02 0.02 0.02 0.02 0.01 0.01 0.01
0.03 0.04 0.06 0.07 0.09 0.09 0.07 0.04 0.02 0.02 0.03 0.02 0.04 0.03 0.02 0.04 0.06 0.07 0.05 0.04 0.06 0.06 0.05 0.04 0.07 0.06 0.05 0.06 0.07 0.06 0.06 0.05 0.03 0.02 0.02 0.02 0.04 0.05 0.04 0.02 0.01 0.01 0.01 0.02 0.02 0.02 0.02 0.01 0.01
0.04 0.06 0.07 0.08 0.08 0.06 0.04 0.02 0.01 0.02 0.03 0.03 0.04 0.04 0.04 0.06 0.05 0.06 0.03 0.03 0.05 0.05 0.03 0.02 0.04 0.05 0.04 0.04 0.06 0.05 0.04 0.04 0.02 0.01 0.01 0.03 0.04 0.03 0.02 0.01 0.00 0.00 0.01 0.02 0.02 0.02 0.02 0.01 0.01
0.05 0.07 0.09 0.10 0.08 0.06 0.04 0.01 0.01 0.02 0.03 0.03 0.04 0.05 0.08 0.12 0.08 0.06 0.03 0.04 0.05 0.04 0.02 0.01 0.02 0.03 0.02 0.03 0.05 0.04 0.05 0.05 0.03 0.03 0.03 0.02 0.01 0.00 0.00 0.01 0.01 0.00 0.01 0.02 0.02 0.02 0.01 0.00 0.00
0.06 0.09 0.09 0.09 0.08 0.08 0.06 0.02 0.02 0.04 0.05 0.04 0.03 0.06 0.10 0.14 0.10 0.06 0.04 0.05 0.05 0.03 0.01 0.01 0.01 0.01 0.02 0.04 0.05 0.05 0.06 0.05 0.05 0.04 0.03 0.02 0.01 0.01 0.01 0.01 0.02 0.01 0.01 0.01 0.01 0.01 0.01 0.01 0.00
0.04 0.08 0.10 0.10 0.08 0.09 0.04 0.02 0.01 0.03 0.04 0.03 0.03 0.08 0.11 0.10 0.09 0.07 0.05 0.04 0.04 0.03 0.02 0.01 0.01 0.00 0.01 0.02 0.03 0.03 0.02 0.02 0.03 0.03 0.01 0.02 0.02 0.01 0.01 0.01 0.00 0.00 0.00 0.00 0.00 0.00 0.00 0.00 0.00
0.01 0.08 0.13 0.13 0.10 0.07 0.04 0.01 0.01 0.02 0.03 0.02 0.02 0.04 0.05 0.05 0.07 0.08 0.06 0.04 0.04 0.04 0.02 0.01 0.01 0.01 0.01 0.01 0.01 0.02 0.01 0.01 0.01 0.01 0.01 0.01 0.01 0.01 0.01 0.00 0.00 0.00 0.00 0.00 0.00 0.00 0.00 0.00 0.00
0.02 0.10 0.10 0.07 0.07 0.06 0.04 0.02 0.01 0.03 0.03 0.03 0.04 0.02 0.04 0.04 0.04 0.09 0.06 0.03 0.03 0.04 0.03 0.01 0.01 0.01 0.01 0.01 0.00 0.01 0.01 0.00 0.00 0.00 0.00 0.00 0.00 0.00 0.00 0.00 0.00 0.00 0.00 0.00 0.00 0.00 0.00 0.01 0.01
0.03 0.10 0.07 0.02 0.02 0.02 0.03 0.02 0.01 0.04 0.06 0.04 0.04 0.03 0.02 0.04 0.06 0.11 0.09 0.05 0.02 0.02 0.01 0.00 0.00 0.01 0.01 0.01 0.00 0.01 0.01 0.01 0.01 0.00 0.00 0.00 0.00 0.00 0.00 0.00 0.00 0.00 0.00 0.00 0.00 0.00 0.00 0.01 0.01
0.02 0.06 0.04 0.02 0.01 0.01 0.02 0.02 0.03 0.04 0.06 0.04 0.02 0.01 0.01 0.04 0.08 0.09 0.07 0.06 0.04 0.02 0.01 0.01 0.01 0.01 0.01 0.01 0.01 0.01 0.01 0.01 0.00 0.00 0.00 0.00 0.00 0.00 0.00 0.00 0.00 0.00 0.00 0.00 0.00 0.00 0.00 0.00 0.00
0.02 0.03 0.03 0.03 0.02 0.01 0.02 0.03 0.04 0.05 0.04 0.02 0.01 0.01 0.02 0.04 0.07 0.05 0.06 0.05 0.04 0.03 0.02 0.01 0.01 0.00 0.01 0.01 0.00 0.01 0.00 0.00 0.00 0.00 0.00 0.00 0.00 0.00 0.00 0.00 0.00 0.00 0.00 0.00 0.00 0.00 0.00 0.00 0.00
0.02 0.01 0.03 0.03 0.02 0.02 0.02 0.03 0.03 0.05 0.03 0.02 0.02 0.02 0.03 0.04 0.05 0.03 0.04 0.04 0.04 0.02 0.01 0.00 0.00 0.00 0.01 0.00 0.00 0.01 0.01 0.00 0.00 0.00 0.00 0.00 0.00 0.00 0.00 0.00 0.00 0.00 0.00 0.00 0.00 0.00 0.00 0.00 0.00
0.02 0.02 0.03 0.04 0.03 0.03 0.04 0.05 0.04 0.04 0.03 0.02 0.02 0.03 0.03 0.04 0.03 0.02 0.03 0.03 0.02 0.01 0.00 0.00 0.01 0.01 0.00 0.00 0.00 0.00 0.00 0.00 0.00 0.00 0.00 0.00 0.00 0.00 0.00 0.00 0.00 0.00 0.00 0.00 0.00 0.00 0.00 0.00 0.00
0.03 0.05 0.07 0.04 0.03 0.03 0.05 0.07 0.04 0.03 0.03 0.03 0.03 0.03 0.03 0.04 0.04 0.04 0.03 0.03 0.02 0.01 0.01 0.01 0.01 0.01 0.01 0.00 0.00 0.00 0.00 0.00 0.00 0.00 0.00 0.00 0.00 0.00 0.00 0.00 0.00 0.00 0.00 0.00 0.01 0.01 0.01 0.01 0.01
0.10 0.09 0.08 0.05 0.03 0.02 0.04 0.05 0.04 0.03 0.04 0.05 0.03 0.03 0.02 0.03 0.05 0.07 0.06 0.03 0.02 0.01 0.01 0.01 0.02 0.02 0.01 0.00 0.00 0.00 0.00 0.00 0.00 0.00 0.00 0.00 0.00 0.00 0.00 0.00 0.00 0.00 0.00 0.01 0.01 0.01 0.02 0.02 0.02
0.09 0.07 0.06 0.05 0.02 0.03 0.03 0.03 0.03 0.02 0.02 0.03 0.02 0.03 0.03 0.03 0.04 0.07 0.05 0.02 0.01 0.01 0.01 0.01 0.01 0.02 0.01 0.00 0.00 0.00 0.00 0.00 0.00 0.00 0.00 0.00 0.00 0.00 0.00 0.00 0.00 0.00 0.01 0.02 0.02 0.02 0.02 0.02 0.02
0.04 0.04 0.06 0.05 0.02 0.04 0.04 0.03 0.04 0.03 0.02 0.02 0.02 0.02 0.03 0.03 0.04 0.06 0.06 0.04 0.02 0.02 0.02 0.02 0.02 0.02 0.01 0.01 0.00 0.00 0.00 0.00 0.00 0.00 0.00 0.00 0.00 0.00 0.00 0.01 0.00 0.00 0.01 0.02 0.02 0.01 0.02 0.02 0.01
0.02 0.04 0.05 0.04 0.02 0.05 0.06 0.05 0.04 0.03 0.03 0.02 0.02 0.02 0.02 0.03 0.03 0.05 0.05 0.05 0.04 0.03 0.02 0.02 0.02 0.02 0.01 0.00 0.00 0.00 0.00 0.00 0.00 0.00 0.00 0.00 0.00 0.00 0.00 0.00 0.00 0.00 0.01 0.01 0.01 0.01 0.03 0.03 0.02
0.02 0.03 0.05 0.04 0.03 0.04 0.07 0.06 0.05 0.03 0.03 0.03 0.03 0.02 0.02 0.02 0.03 0.04 0.07 0.05 0.04 0.04 0.03 0.03 0.03 0.02 0.01 0.00 0.00 0.00 0.00 0.00 0.00 0.00 0.00 0.00 0.00 0.00 0.00 0.00 0.00 0.00 0.00 0.01 0.01 0.01 0.04 0.04 0.03
0.03 0.01 0.02 0.03 0.04 0.06 0.08 0.11 0.08 0.04 0.05 0.04 0.02 0.02 0.01 0.01 0.02 0.02 0.05 0.07 0.05 0.04 0.03 0.03 0.03 0.03 0.01 0.00 0.00 0.00 0.00 0.00 0.00 0.00 0.00 0.00 0.00 0.00 0.00 0.00 0.00 0.00 0.00 0.01 0.01 0.01 0.02 0.03 0.04
0.01 0.01 0.01 0.02 0.03 0.05 0.06 0.11 0.11 0.06 0.06 0.05 0.02 0.01 0.01 0.01 0.01 0.01 0.01 0.04 0.05 0.04 0.02 0.03 0.03 0.02 0.01 0.00 0.00 0.00 0.00 0.00 0.00 0.00 0.00 0.00 0.00 0.00 0.00 0.00 0.00 0.00 0.00 0.00 0.01 0.01 0.01 0.02 0.02
0.00 0.01 0.02 0.03 0.05 0.06 0.04 0.07 0.11 0.09 0.06 0.05 0.03 0.01 0.00 0.00 0.01 0.01 0.01 0.02 0.03 0.03 0.02 0.02 0.02 0.01 0.01 0.00 0.00 0.00 0.00 0.00 0.00 0.00 0.00 0.00 0.00 0.00 0.00 0.00 0.00 0.00 0.00 0.01 0.01 0.01 0.01 0.01 0.01
0.01 0.05 0.08 0.08 0.07 0.06 0.03 0.04 0.06 0.06 0.04 0.04 0.03 0.01 0.01 0.00 0.00 0.01 0.01 0.02 0.02 0.02 0.01 0.01 0.02 0.01 0.01 0.01 0.00 0.00 0.00 0.00 0.00 0.00 0.00 0.00 0.00 0.00 0.00 0.00 0.00 0.00 0.00 0.01 0.01 0.01 0.01 0.00 0.00
0.04 0.06 0.09 0.09 0.08 0.06 0.03 0.04 0.04 0.04 0.04 0.03 0.03 0.02 0.01 0.01 0.00 0.00 0.01 0.01 0.02 0.02 0.01 0.01 0.01 0.01 0.01 0.01 0.00 0.00 0.00 0.00 0.00 0.00 0.00 0.00 0.00 0.00 0.00 0.01 0.00 0.00 0.00 0.00 0.01 0.01 0.01 0.00 0.00
0.04 0.03 0.02 0.05 0.06 0.07 0.04 0.03 0.03 0.03 0.04 0.04 0.04 0.02 0.01 0.00 0.00 0.00 0.00 0.00 0.00 0.00 0.00 0.01 0.01 0.01 0.01 0.01 0.00 0.00 0.00 0.00 0.00 0.00 0.00 0.00 0.00 0.00 0.00 0.01 0.00 0.00 0.00 0.00 0.00 0.00 0.01 0.00 0.00
0.01 0.02 0.02 0.04 0.06 0.07 0.04 0.02 0.03 0.03 0.03 0.04 0.05 0.02 0.01 0.00 0.00 0.00 0.01 0.01 0.00 0.00 0.00 0.00 0.01 0.01 0.01 0.00 0.00 0.00 0.00 0.00 0.00 0.00 0.00 0.00 0.00 0.00 0.00 0.01 0.00 0.00 0.00 0.00 0.00 0.00 0.00 0.00 0.01
0.01 0.00 0.02 0.03 0.03 0.05 0.05 0.04 0.01 0.02 0.02 0.02 0.03 0.03 0.01 0.00 0.00 0.00 0.00 0.00 0.00 0.00 0.00 0.00 0.00 0.01 0.01 0.00 0.00 0.00 0.00 0.00 0.00 0.00 0.00 0.00 0.00 0.00 0.00 0.00 0.00 0.00 0.00 0.00 0.00 0.00 0.00 0.01 0.01
0.00 0.00 0.01 0.05 0.04 0.03 0.04 0.03 0.01 0.01 0.01 0.02 0.01 0.02 0.02 0.00 0.00 0.00 0.00 0.00 0.01 0.00 0.00 0.00 0.00 0.00 0.00 0.00 0.00 0.00 0.00 0.00 0.00 0.00 0.00 0.00 0.00 0.00 0.00 0.00 0.00 0.00 0.00 0.01 0.00 0.00 0.00 0.01 0.02
MSLP
1007.93 1008.62 1009.49 1010.40 1011.23 1011.87 1012.27 1012.44 1012.42 1012.31 1012.19 1012.16 1012.26 1012.50 1012.86 1013.26 1013.63 1013.91 1014.05 1014.06 1013.95 1013.78 1013.61 1013.49 1013.45 1013.50 1013.61 1013.74 1013.85 1013.91 1013.91 1013.85 1013.77 1013.71 1013.70 1013.76 1013.89 1014.07 1014.25 1014.40 1014.48 1014.48 1014.40 1014.27 1014.13 1014.02 1013.97 1013.98 1014.06
1008.34 1009.15 1010.06 1010.92 1011.63 1012.10 1012.31 1012.31 1012.17 1011.99 1011.87 1011.88 1012.05 1012.36 1012.77 1013.20 1013.58 1013.85 1013.98 1013.98 1013.90 1013.78 1013.68 1013.65 1013.70 1013.82 1013.97 1014.13 1014.24 1014.29 1014.28 1014.21 1014.12 1014.05 1014.03 1014.07 1014.17 1014.29 1014.42 1014.50 1014.52 1014.48 1014.38 1014.26 1014.15 1014.08 1014.08 1014.13 1014.23
1008.85 1009.75 1010.64 1011.40 1011.94 1012.21 1012.23 1012.06 1011.81 1011.58 1011.48 1011.55 1011.81 1012.20 1012.67 1013.13 1013.50 1013.75 1013.86 1013.86 1013.79 1013.71 1013.68 1013.72 1013.85 1014.03 1014.24 1014.42 1014.55 1014.61 1014.60 1014.53 1014.45 1014.39 1014.36 1014.37 1014.43 1014.49 1014.55 1014.57 1014.54 1014.47 1014.37 1014.28 1014.22 1014.20 1014.25 1014.34 1014.45
1009.42 1010.34 1011.16 1011.79 1012.13 1012.20 1012.03 1011.72 1011.39 1011.16 1011.11 1011.26 1011.61 1012.08 1012.61 1013.09 1013.45 1013.68 1013.76 1013.74 1013.67 1013.62 1013.64 1013.74 1013.92 1014.15 1014.40 1014.61 1014.76 1014.83 1014.84 1014.79 1014.72 1014.67 1014.64 1014.63 1014.65 1014.66 1014.65 1014.62 1014.56 1014.48 1014.40 1014.35 1014.34 1014.38 1014.47 1014.57 1014.68
1009.98 1010.86 1011.58 1012.03 1012.19 1012.06 1011.74 1011.34 1010.98 1010.78 1010.81 1011.07 1011.51 1012.07 1012.64 1013.13 1013.48 1013.67 1013.71 1013.66 1013.59 1013.55 1013.59 1013.73 1013.94 1014.20 1014.47 1014.70 1014.86 1014.94 1014.97 1014.94 1014.90 1014.86 1014.83 1014.82 1014.80 1014.78 1014.73 1014.67 1014.59 1014.52 1014.48 1014.47 1014.51 1014.60 1014.70 1014.80 1014.87
1010.46 1011.26 1011.84 1012.13 1012.11 1011.83 1011.40 1010.96 1010.62 1010.50 1010.63 1011.01 1011.56 1012.19 1012.79 1013.28 1013.60 1013.74 1013.74 1013.66 1013.57 1013.52 1013.57 1013.71 1013.94 1014.20 1014.47 1014.69 1014.85 1014.94 1014.98 1014.97 1014.96 1014.94 1014.92 1014.90 1014.88 1014.84 1014.78 1014.71 1014.63 1014.59 1014.57 1014.61 1014.68 1014.77 1014.87 1014.93 1014.95
1010.84 1011.53 1011.95 1012.08 1011.92 1011.55 1011.08 1010.65 1010.38 1010.36 1010.62 1011.11 1011.75 1012.44 1013.06 1013.53 1013.80 1013.89 1013.84 1013.71 1013.59 1013.53 1013.56 1013.70 1013.91 1014.16 1014.41 1014.61 1014.76 1014.84 1014.88 1014.90 1014.90 1014.90 1014.90 1014.90 1014.88 1014.83 1014.77 1014.71 1014.65 1014.62 1014.63 1014.69 1014.76 1014.85 1014.91 1014.92 1014.87
1011.12 1011.67 1011.95 1011.95 1011.70 1011.28 1010.82 1010.45 1010.29 1010.40 1010.78 1011.37 1012.07 1012.78 1013.39 1013.82 1014.03 1014.06 1013.95 1013.79 1013.63 1013.55 1013.57 1013.69 1013.88 1014.10 1014.31 1014.49 1014.61 1014.68 1014.72 1014.74 1014.76 1014.78 1014.80 1014.81 1014.80 1014.77 1014.72 1014.66 1014.62 1014.60 1014.62 1014.67 1014.73 1014.78 1014.78 1014.73 1014.61
1011.30 1011.73 1011.89 1011.80 1011.50 1011.09 1010.69 1010.43 1010.39 1010.62 1011.09 1011.75 1012.48 1013.18 1013.74 1014.11 1014.26 1014.22 1014.06 1013.85 1013.67 1013.57 1013.57 1013.67 1013.84 1014.03 1014.21 1014.35 1014.45 1014.51 1014.55 1014.57 1014.60 1014.64 1014.67 1014.70 1014.70 1014.68 1014.63 1014.58 1014.53 1014.51 1014.51 1014.53 1014.56 1014.56 1014.51 1014.39 1014.22
1011.43 1011.75 1011.83 1011.69 1011.40 1011.05 1010.75 1010.60 1010.68 1011.01 1011.55 1012.23 1012.94 1013.58 1014.07 1014.35 1014.42 1014.32 1014.11 1013.87 1013.68 1013.57 1013.57 1013.65 1013.81 1013.98 1014.14 1014.26 1014.34 1014.38 1014.41 1014.44 1014.47 1014.52 1014.57 1014.60 1014.61 1014.59 1014.54 1014.48 1014.42 1014.37 1014.33 1014.31 1014.28 1014.23 1014.13 1013.97 1013.77
1011.53 1011.78 1011.82 1011.69 1011.44 1011.18 1010.99 1010.96 1011.14 1011.53 1012.10 1012.75 1013.40 1013.96 1014.34 1014.53 1014.52 1014.35 1014.11 1013.86 1013.66 1013.56 1013.56 1013.66 1013.81 1013.98 1014.13 1014.24 1014.31 1014.35 1014.38 1014.40 1014.44 1014.48 1014.53 1014.57 1014.58 1014.55 1014.49 1014.41 1014.31 1014.22 1014.13 1014.06 1013.97 1013.87 1013.74 1013.56 1013.36
1011.66 1011.87 1011.91 1011.82 1011.66 1011.50 1011.43 1011.50 1011.74 1012.15 1012.68 1013.26 1013.81 1014.25 1014.52 1014.61 1014.53 1014.32 1014.06 1013.81 1013.63 1013.56 1013.58 1013.70 1013.87 1014.05 1014.21 1014.33 1014.40 1014.44 1014.46 1014.49 1014.52 1014.57 1014.61 1014.64 1014.64 1014.60 1014.52 1014.41 1014.27 1014.12 1013.98 1013.85 1013.71 1013.58 1013.43 1013.26 1013.08
1011.84 1012.05 1012.14 1012.12 1012.06 1012.00 1012.02 1012.15 1012.41 1012.79 1013.25 1013.72 1014.14 1014.44 1014.60 1014.60 1014.47 1014.24 1013.99 1013.77 1013.63 1013.59 1013.65 1013.80 1014.00 1014.21 1014.39 1014.53 1014.61 1014.66 1014.69 1014.71 1014.73 1014.77 1014.80 1014.83 1014.82 1014.76 1014.66 1014.52 1014.34 1014.14 1013.94 1013.75 1013.57 1013.41 1013.26 1013.11 1012.97
1012.12 1012.38 1012.53 1012.60 1012.64 1012.67 1012.74 1012.88 1013.11 1013.40 1013.73 1014.06 1014.33 1014.51 1014.57 1014.51 1014.35 1014.14 1013.92 1013.75 1013.66 1013.68 1013.80 1013.99 1014.23 1014.46 1014.67 1014.83 1014.94 1014.99 1015.02 1015.03 1015.05 1015.07 1015.10 1015.11 1015.09 1015.03 1014.92 1014.75 1014.53 1014.29 1014.04 1013.81 1013.60 1013.42 1013.27 1013.15 1013.05
1012.54 1012.86 1013.11 1013.27 1013.38 1013.47 1013.55 1013.65 1013.78 1013.94 1014.11 1014.28 1014.40 1014.46 1014.45 1014.36 1014.21 1014.04 1013.89 1013.79 1013.77 1013.85 1014.01 1014.25 1014.52 1014.79 1015.03 1015.21 1015.33 1015.39 1015.42 1015.42 1015.42 1015.43 1015.44 1015.44 1015.43 1015.37 1015.25 1015.08 1014.85 1014.58 1014.30 1014.02 1013.78 1013.58 1013.44 1013.34 1013.27
1013.13 1013.55 1013.88 1014.13 1014.29 1014.39 1014.42 1014.43 1014.41 1014.39 1014.37 1014.36 1014.34 1014.30 1014.24 1014.16 1014.06 1013.96 1013.90 1013.88 1013.94 1014.08 1014.29 1014.56 1014.86 1015.16 1015.42 1015.62 1015.75 1015.81 1015.83 1015.82 1015.80 1015.79 1015.78 1015.79 1015.78 1015.73 1015.64 1015.47 1015.24 1014.96 1014.66 1014.36 1014.09 1013.87 1013.72 1013.62 1013.57
1013.91 1014.43 1014.85 1015.16 1015.34 1015.40 1015.34 1015.19 1014.98 1014.75 1014.52 1014.33 1014.17 1014.06 1013.98 1013.94 1013.92 1013.92 1013.95 1014.03 1014.16 1014.35 1014.60 1014.90 1015.21 1015.52 1015.79 1016.00 1016.14 1016.21 1016.21 1016.19 1016.15 1016.12 1016.10 1016.11 1016.11 1016.09 1016.02 1015.88 1015.67 1015.40 1015.08 1014.76 1014.46 1014.22 1014.05 1013.94 1013.88
1014.86 1015.48 1015.98 1016.33 1016.50 1016.47 1016.28 1015.94 1015.50 1015.03 1014.59 1014.21 1013.94 1013.77 1013.70 1013.72 1013.80 1013.92 1014.06 1014.23 1014.42 1014.66 1014.93 1015.23 1015.54 1015.85 1016.13 1016.35 1016.49 1016.56 1016.56 1016.51 1016.45 1016.40 1016.38 1016.38 1016.40 1016.40 1016.37 1016.27 1016.09 1015.83 1015.52 1015.19 1014.87 1014.59 1014.39 1014.26 1014.18
1015.90 1016.62 1017.18 1017.55 1017.67 1017.55 1017.18 1016.63 1015.95 1015.25 1014.59 1014.05 1013.67 1013.48 1013.44 1013.54 1013.72 1013.96 1014.21 1014.46 1014.71 1014.96 1015.24 1015.53 1015.83 1016.13 1016.41 1016.64 1016.79 1016.86 1016.86 1016.81 1016.73 1016.66 1016.62 1016.62 1016.65 1016.67 1016.67 1016.61 1016.46 1016.23 1015.93 1015.59 1015.25 1014.95 1014.72 1014.55 1014.44
1016.93 1017.72 1018.34 1018.70 1018.77 1018.52 1017.99 1017.22 1016.32 1015.39 1014.54 1013.87 1013.41 1013.21 1013.22 1013.41 1013.70 1014.05 1014.40 1014.72 1015.00 1015.27 1015.52 1015.79 1016.07 1016.36 1016.64 1016.87 1017.04 1017.13 1017.14 1017.09 1017.00 1016.92 1016.86 1016.85 1016.87 1016.91 1016.93 1016.89 1016.78 1016.58 1016.30 1015.97 1015.62 1015.30 1015.03 1014.83 1014.70
1017.80 1018.65 1019.29 1019.64 1019.65 1019.29 1018.60 1017.65 1016.56 1015.45 1014.45 1013.67 1013.18 1012.98 1013.06 1013.34 1013.75 1014.20 1014.63 1015.00 1015.31 1015.56 1015.80 1016.03 1016.28 1016.55 1016.83 1017.08 1017.27 1017.39 1017.42 1017.38 1017.29 1017.19 1017.11 1017.07 1017.08 1017.11 1017.14 1017.13 1017.05 1016.88 1016.62 1016.30 1015.96 1015.63 1015.34 1015.13 1014.98
1018.36 1019.24 1019.90 1020.23 1020.19 1019.75 1018.94 1017.86 1016.63 1015.39 1014.30 1013.47 1012.97 1012.82 1012.97 1013.35 1013.86 1014.40 1014.90 1015.32 1015.63 1015.86 1016.06 1016.25 1016.47 1016.72 1017.00 1017.26 1017.49 1017.64 1017.71 1017.68 1017.60 1017.49 1017.39 1017.32 1017.29 1017.30 1017.32 1017.32 1017.26 1017.11 1016.89 1016.60 1016.27 1015.95 1015.68 1015.46 1015.31
1018.53 1019.41 1020.06 1020.38 1020.31 1019.82 1018.95 1017.80 1016.50 1015.21 1014.09 1013.26 1012.79 1012.70 1012.93 1013.41 1014.02 1014.65 1015.21 1015.64 1015.95 1016.16 1016.31 1016.46 1016.64 1016.87 1017.15 1017.44 1017.70 1017.89 1017.99 1017.99 1017.92 1017.79 1017.66 1017.56 1017.49 1017.47 1017.47 1017.46 1017.41 1017.30 1017.11 1016.85 1016.57 1016.28 1016.02 1015.82 1015.69
1018.28 1019.14 1019.77 1020.08 1020.00 1019.50 1018.63 1017.47 1016.17 1014.90 1013.81 1013.03 1012.63 1012.62 1012.95 1013.52 1014.22 1014.92 1015.52 1015.97 1016.28 1016.46 1016.57 1016.66 1016.81 1017.02 1017.28 1017.59 1017.87 1018.10 1018.24 1018.27 1018.20 1018.07 1017.92 1017.77 1017.66 1017.60 1017.57 1017.56 1017.52 1017.43 1017.28 1017.07 1016.84 1016.59 1016.38 1016.21 1016.09
1017.66 1018.47 1019.07 1019.38 1019.32 1018.85 1018.03 1016.93 1015.70 1014.50 1013.49 1012.79 1012.48 1012.57 1012.99 1013.65 1014.42 1015.18 1015.81 1016.28 1016.58 1016.73 1016.80 1016.86 1016.96 1017.14 1017.40 1017.70 1018.00 1018.26 1018.42 1018.47 1018.42 1018.28 1018.11 1017.93 1017.78 1017.69 1017.63 1017.60 1017.57 1017.51 1017.40 1017.25 1017.07 1016.89 1016.72 1016.59 1016.50
1016.80 1017.54 1018.12 1018.43 1018.40 1017.99 1017.25 1016.26 1015.13 1014.05 1013.16 1012.57 1012.37 1012.54 1013.04 1013.77 1014.60 1015.39 1016.06 1016.54 1016.83 1016.97 1017.01 1017.03 1017.09 1017.24 1017.47 1017.77 1018.07 1018.34 1018.52 1018.59 1018.54 1018.41 1018.22 1018.02 1017.85 1017.73 1017.65 1017.62 1017.60 1017.57 1017.51 1017.42 1017.29 1017.16 1017.04 1016.95 1016.90
1015.85 1016.53 1017.07 1017.39 1017.40 1017.07 1016.43 1015.56 1014.58 1013.63 1012.86 1012.39 1012.28 1012.53 1013.09 1013.86 1014.73 1015.55 1016.23 1016.72 1017.01 1017.14 1017.17 1017.16 1017.20 1017.31 1017.52 1017.79 1018.09 1018.35 1018.54 1018.62 1018.58 1018.45 1018.27 1018.07 1017.89 1017.76 1017.68 1017.66 1017.66 1017.66 1017.64 1017.59 1017.52 1017.44 1017.36 1017.31 1017.28
1015.00 1015.60 1016.11 1016.42 1016.47 1016.23 1015.69 1014.95 1014.10 1013.29 1012.64 1012.27 1012.23 1012.53 1013.12 1013.91 1014.78 1015.61 1016.30 1016.80 1017.10 1017.24 1017.27 1017.26 1017.28 1017.37 1017.56 1017.80 1018.08 1018.33 1018.52 1018.61 1018.59 1018.48 1018.31 1018.12 1017.96 1017.84 1017.78 1017.77 1017.79 1017.82 1017.84 1017.84 1017.81 1017.76 1017.71 1017.68 1017.66
1014.37 1014.90 1015.37 1015.67 1015.75 1015.56 1015.12 1014.49 1013.76 1013.06 1012.51 1012.21 1012.22 1012.54 1013.13 1013.90 1014.75 1015.57 1016.26 1016.77 1017.09 1017.25 1017.31 1017.32 1017.35 1017.44 1017.61 1017.84 1018.10 1018.35 1018.53 1018.63 1018.63 1018.55 1018.42 1018.27 1018.14 1018.05 1018.02 1018.03 1018.08 1018.14 1018.18 1018.20 1018.19 1018.16 1018.13 1018.10 1018.09
1014.01 1014.48 1014.89 1015.17 1015.25 1015.10 1014.72 1014.18 1013.55 1012.94 1012.47 1012.21 1012.24 1012.54 1013.10 1013.83 1014.64 1015.42 1016.10 1016.63 1016.99 1017.19 1017.29 1017.35 1017.42 1017.53 1017.71 1017.94 1018.20 1018.45 1018.64 1018.76 1018.80 1018.76 1018.67 1018.57 1018.49 1018.45 1018.45 1018.49 1018.56 1018.63 1018.69 1018.71 1018.71 1018.69 1018.65 1018.62 1018.60
Thickness
5794 5798 5799 5788 5769 5759 5759 5768 5778 5778 5780 5789 5792 5788 5776 5769 5761 5749 5768 5780 5780 5777 5775 5773 5772 5772 5770 5769 5769 5768 5767 5765 5765 5764 5762 5761 5760 5759 5758 5757 5756 5756 5755 5755 5755 5755 5755 5755 5755
5794 5798 5790 5776 5757 5748 5754 5769 5771 5775 5784 5791 5790 5786 5776 5768 5772 5768 5771 5777 5778 5775 5773 5771 5770 5769 5768 5767 5766 5765 5764 5763 5762 5761 5759 5758 5757 5756 5755 5754 5753 5753 5753 5752 5752 5753 5753 5753 5753
5792 5794 5777 5766 5757 5753 5754 5769 5773 5781 5789 5788 5782 5780 5771 5764 5769 5769 5774 5778 5776 5773 5770 5768 5767 5766 5765 5764 5763 5762 5761 5760 5759 5758 5757 5755 5754 5753 5752 5751 5751 5751 5750 5750 5750 5750 5751 5751 5751
5787 5780 5773 5760 5753 5764 5769 5773 5779 5778 5782 5786 5780 5767 5765 5771 5771 5772 5776 5776 5773 5770 5767 5765 5765 5764 5763 5762 5761 5760 5759 5758 5756 5755 5754 5753 5752 5751 5750 5749 5748 5748 5748 5748 5748 5748 5748 5749 5749
5781 5767 5756 5751 5756 5768 5777 5781 5782 5773 5774 5777 5773 5756 5753 5766 5772 5774 5774 5773 5771 5768 5765 5763 5762 5761 5760 5759 5758 5757 5756 5755 5754 5753 5752 5751 5750 5748 5747 5747 5746 5746 5746 5745 5745 5745 5746 5747 5747
5765 5761 5746 5742 5751 5767 5776 5783 5779 5772 5771 5773 5768 5756 5749 5763 5766 5768 5771 5771 5770 5767 5764 5761 5760 5759 5758 5757 5756 5755 5754 5754 5752 5751 5750 5749 5748 5747 5746 5745 5744 5744 5743 5743 5743 5743 5744 5744 5745
5754 5750 5743 5745 5746 5755 5768 5779 5773 5767 5765 5769 5772 5754 5749 5757 5764 5768 5769 5769 5768 5766 5764 5761 5759 5758 5757 5756 5755 5754 5753 5752 5751 5750 5749 5748 5747 5746 5745 5743 5743 5742 5742 5741 5741 5741 5741 5742 5743
5762 5750 5742 5743 5743 5748 5768 5775 5774 5769 5765 5776 5775 5755 5746 5755 5764 5766 5767 5766 5766 5765 5764 5762 5760 5758 5756 5755 5754 5753 5753 5752 5751 5750 5749 5748 5747 5745 5744 5742 5741 5740 5740 5740 5739 5739 5740 5740 5741
5763 5740 5731 5736 5741 5748 5766 5766 5769 5775 5768 5768 5770 5764 5759 5762 5763 5761 5760 5760 5761 5762 5763 5762 5761 5759 5757 5756 5755 5754 5753 5752 5751 5750 5749 5748 5747 5746 5743 5742 5741 5740 5739 5738 5738 5738 5738 5739 5740
5751 5729 5733 5748 5753 5753 5760 5762 5764 5763 5756 5754 5755 5757 5759 5759 5758 5755 5754 5753 5755 5757 5760 5762 5761 5759 5758 5757 5755 5755 5754 5752 5751 5751 5750 5748 5748 5746 5744 5741 5740 5739 5738 5737 5737 5737 5738 5738 5739
5745 5733 5741 5751 5758 5759 5757 5759 5764 5756 5745 5749 5747 5749 5754 5754 5753 5752 5752 5753 5754 5757 5758 5760 5760 5759 5758 5757 5756 5755 5754 5752 5751 5750 5749 5747 5746 5745 5743 5741 5739 5738 5737 5737 5737 5737 5738 5739 5739
5740 5740 5746 5750 5758 5757 5755 5756 5754 5752 5749 5756 5756 5754 5753 5751 5750 5750 5750 5751 5753 5753 5755 5758 5759 5759 5758 5756 5755 5754 5753 5751 5749 5748 5747 5745 5744 5743 5742 5741 5739 5738 5737 5736 5736 5736 5737 5738 5738
5736 5738 5746 5750 5753 5754 5754 5749 5747 5746 5754 5757 5755 5753 5751 5751 5751 5752 5753 5753 5752 5751 5753 5755 5757 5757 5756 5754 5753 5752 5749 5748 5747 5745 5745 5744 5742 5741 5740 5739 5737 5736 5735 5734 5734 5734 5734 5734 5734
5738 5739 5742 5745 5747 5749 5745 5744 5743 5742 5752 5751 5750 5748 5750 5749 5750 5750 5751 5750 5750 5750 5751 5754 5755 5756 5755 5753 5751 5750 5748 5746 5744 5744 5744 5743 5741 5739 5738 5736 5735 5734 5733 5732 5732 5731 5730 5730 5730
5740 5732 5732 5737 5741 5743 5742 5730 5735 5744 5749 5745 5746 5746 5747 5748 5749 5749 5750 5749 5750 5750 5751 5751 5753 5753 5752 5750 5749 5748 5747 5745 5743 5742 5742 5741 5739 5737 5735 5734 5732 5732 5731 5730 5729 5728 5727 5727 5727
5730 5722 5713 5728 5737 5741 5732 5713 5733 5746 5745 5740 5741 5742 5742 5745 5747 5748 5750 5750 5751 5750 5750 5750 5751 5750 5749 5747 5747 5746 5744 5743 5741 5739 5739 5738 5736 5734 5733 5731 5730 5729 5728 5727 5726 5724 5722 5722 5722
5714 5706 5708 5720 5735 5737 5730 5717 5731 5743 5741 5736 5737 5738 5740 5741 5743 5746 5749 5749 5750 5750 5749 5747 5748 5747 5745 5745 5744 5743 5742 5740 5738 5736 5735 5734 5733 5732 5730 5729 5727 5726 5725 5723 5723 5720 5719 5717 5717
5704 5708 5711 5715 5730 5732 5724 5721 5730 5739 5739 5735 5736 5737 5738 5738 5740 5745 5747 5748 5749 5749 5748 5746 5745 5744 5743 5742 5741 5740 5739 5738 5736 5734 5732 5731 5730 5729 5728 5726 5725 5723 5721 5720 5719 5717 5716 5715 5715
5717 5714 5711 5717 5732 5728 5722 5722 5727 5735 5736 5734 5735 5736 5736 5738 5742 5745 5745 5746 5746 5746 5745 5743 5742 5741 5740 5737 5736 5734 5733 5734 5733 5732 5730 5728 5727 5726 5726 5724 5722 5721 5718 5717 5716 5714 5712 5712 5713
5721 5714 5712 5718 5730 5726 5720 5722 5729 5733 5734 5736 5737 5737 5738 5738 5739 5740 5742 5743 5743 5742 5742 5742 5740 5738 5737 5735 5735 5734 5733 5732 5731 5729 5728 5726 5725 5724 5724 5722 5720 5719 5717 5715 5713 5711 5708 5708 5710
5718 5715 5713 5713 5722 5727 5719 5713 5721 5730 5736 5738 5740 5742 5742 5739 5738 5738 5739 5739 5740 5740 5739 5739 5738 5736 5735 5735 5734 5733 5731 5729 5727 5726 5725 5724 5723 5722 5722 5721 5720 5718 5716 5713 5712 5710 5706 5703 5706
5712 5725 5723 5719 5712 5706 5714 5696 5714 5725 5727 5732 5735 5738 5739 5740 5740 5738 5737 5736 5737 5738 5739 5738 5737 5736 5735 5734 5732 5729 5725 5722 5724 5724 5723 5723 5722 5721 5720 5720 5719 5717 5715 5713 5711 5710 5707 5704 5701
5721 5730 5725 5721 5714 5708 5713 5702 5711 5726 5721 5728 5734 5737 5739 5740 5739 5736 5736 5735 5736 5737 5737 5737 5735 5734 5734 5733 5730 5728 5725 5724 5724 5723 5722 5721 5721 5720 5719 5719 5718 5716 5714 5712 5710 5709 5707 5705 5702
5731 5727 5723 5721 5711 5694 5711 5706 5707 5724 5730 5733 5736 5739 5739 5739 5738 5736 5736 5735 5734 5734 5734 5733 5732 5731 5731 5731 5729 5726 5723 5722 5721 5719 5718 5718 5718 5718 5718 5718 5716 5714 5713 5711 5709 5708 5706 5704 5703
5726 5708 5692 5689 5686 5695 5724 5715 5717 5739 5746 5744 5740 5739 5740 5739 5736 5733 5731 5730 5729 5729 5729 5730 5728 5727 5728 5728 5727 5725 5723 5722 5719 5718 5716 5716 5715 5714 5715 5715 5714 5712 5711 5710 5709 5707 5705 5704 5702
5719 5709 5689 5682 5687 5701 5721 5715 5729 5750 5752 5751 5747 5743 5740 5737 5735 5733 5731 5729 5728 5728 5728 5727 5726 5725 5725 5725 5725 5724 5722 5720 5718 5717 5716 5715 5714 5713 5713 5713 5711 5710 5709 5708 5707 5705 5703 5703 5701
5716 5713 5721 5707 5706 5699 5712 5724 5734 5747 5745 5746 5744 5740 5737 5736 5735 5733 5731 5729 5728 5727 5727 5727 5724 5723 5723 5723 5722 5721 5720 5718 5717 5716 5716 5714 5714 5713 5712 5711 5709 5708 5707 5705 5704 5702 5701 5700 5699
5732 5728 5722 5708 5694 5690 5705 5716 5718 5729 5735 5739 5739 5737 5737 5736 5735 5733 5730 5729 5727 5727 5727 5726 5724 5722 5722 5721 5720 5718 5717 5716 5715 5714 5712 5712 5711 5711 5709 5708 5706 5705 5703 5703 5701 5699 5698 5697 5696
5725 5725 5724 5719 5714 5696 5690 5705 5742 5739 5741 5739 5739 5739 5737 5735 5734 5731 5729 5728 5727 5725 5725 5723 5721 5720 5719 5718 5717 5716 5714 5713 5712 5711 5710 5709 5709 5708 5706 5705 5703 5701 5700 5699 5697 5696 5695 5694 5693
5734 5730 5724 5706 5706 5714 5704 5707 5750 5750 5748 5745 5742 5741 5739 5737 5734 5731 5728 5726 5724 5722 5722 5720 5719 5718 5716 5716 5714 5712 5711 5710 5708 5707 5707 5707 5706 5705 5703 5701 5699 5698 5696 5695 5693 5692 5691 5690 5689